Showing default

GAOFEN 4, 41194

Orbit data source: Space-Track

GAOFEN 4, 41194 is a payload satellite owned by GGKGJ (CN) in GEO that was launched on Mon, 28 Dec 2015 UTC via a CHANG ZHENG 3B launch vehicle from the Xichang Space Center, China (XSC). Payload-class satellites include a variety of spacecraft equipped with specific instruments for various scientific and technological missions. These include communications satellites like Starlink; space stations such as the ISS; scientific satellites like the Hubble; Earth observation satellites from companies like Planet Labs, Umbra, and HawkEye 360; GPS; miniature CubeSats for education and research; and military/defense satellites.

Not visible in the next 10 days
Identifier
41194, 2015-083A
Orbit
GEO
Country
Flag of CNCN / PRC
Related business
Manufacturer
CAST
Mission
Operational Civil Imaging
Bus & Motor
DFH-4, DFH-4 LAE
Mass
~5,000 kg wet, ~2,500 kg dry
Launch date (UTC)
2015-12-28 (10 years ago)
Launch vehicle
CHANG ZHENG 3B
Launch site
Xichang Space Center, China (XSC)
Object type
Payload
Rocket body
Debris
Shape & HBR
Box + 2 Pan, 15.0 m
Radar Cross Section
34.063 m², Large (>1 m²)

Expand to show TLE details & history
Last TLE update: 21 hours ago

TLE from 21 hours ago
0 GAOFEN 4
1 41194U 15083A   26172.55360350 -.00000336  00000-0  00000+0 0  9993
2 41194   0.3702  83.8176 0004198 118.5029  12.4212  1.00272762 38576
Epoch: 2026-06-21T13:17Z
TLE epoch observation values (Epoch: 2026-06-21T13:17:11.342Z)
Latitude
0.2683°
Longitude
105.71423°
Altitude
35,768.528 km
Speed
3.076 km/s
True Right ascension
14h 19m 03s
True Declination
0° 16' 05"
Sunlit
Object was in daylight at epoch
Visualization orbit readout
Latitude
Unknown
Longitude
Unknown
Altitude
Unknown
Speed
Unknown
Apparent Right ascension
Unknown
Apparent Declination
Unknown
Sunlit
N/A
Visualization observer readout
Local Sidereal Time
21:41:06
Azimuth
Unknown
Elevation
Unknown
Doppler factor
Unknown
Orbital elements
Apogee altitude
35,805.092 km
Perigee altitude
35,769.69 km
Semi-major axis
42,165.528 km
Eccentricity
0.00042
Inclination
0.3702°
RAAN
83.8176°
Arg. of periapsis
118.5029°
True anomaly
12.43155°
Mean anomaly
12.4212°
Eccentric anomaly
12.42638°
Mean motion
0.25067 °/min
Orbital period
1,436.14 mins
BSTAR
0
Loading maneuver chart data...
Computing Atmospheric mass density...
Loading historical data...
Loading historical data...
Loading historical data...
Loading historical data...
Loading historical data...
Loading historical data...
Loading historical data...
Other satellites on launch #83 in the year 2015 (2015-12-28 UTC)

Documentation

Showing up to 5 results
|